Weather History for Farmington, MO

Change the Weather History Date:

Friday, March 1, 2013

  Actual Average Record
Temperature  
Mean Temperature 30 °F -  
Max Temperature 33 °F 47 °F 73 °F (2006)
Min Temperature 28 °F 29 °F 21 °F (2009)
Degree Days  
Heating Degree Days 34    
Moisture  
Dew Point 26 °F    
Average Humidity 84    
Maximum Humidity 93    
Minimum Humidity 70    
Precipitation  
Precipitation 0.00 in - - ()
Sea Level Pressure  
Sea Level Pressure 30.11 in    
Wind  
Wind Speed 9 mph (NW)    
Max Wind Speed 14 mph    
Max Gust Speed 18 mph    
Visibility 7 miles    
Events      
Averages and records for this station are not official NWS values.
T = Trace of Precipitation, MM = Missing Value Source: NWS Daily Summary

Daily Weather History Graph

Daily Weather History Graph

Search for Another Location

Airport:

Trip Planner

Search our weather history database for the weather conditions in past years. The results will help you decide how hot, cold, wet, or windy it might be!

Date:

Astronomy

Mar. 01, 2013 Rise Set
Actual Time 6:32 AM CST 5:55 PM CST
Civil Twilight 6:06 AM CST 6:21 PM CST
Nautical Twilight 5:36 AM CST 6:52 PM CST
Astronomical Twilight 5:05 AM CST 7:22 PM CST
Moon 10:23 PM CST (3/1) 8:24 AM CST (3/1)
Length of Visible Light 12h 15m
Length of Day
11h 22m
Waning Gibbous, 83% of the Moon is Illuminated
Mar 1
Waning Gibbous
Mar 4
Last Quarter
Mar 11
New
Mar 19
First Quarter
Mar 27
Full

Hourly Weather History & Observations

Time (CST) Temp. Windchill Dew Point Humidity Pressure Visibility Wind Dir Wind Speed Gust Speed Precip Events Conditions
12:15 AM 30.2 °F 23.4 °F 26.6 °F 86% 30.08 in 4.0 mi WNW 6.9 mph - N/A   Overcast
12:35 AM 30.2 °F 21.9 °F 26.6 °F 86% 30.08 in 5.0 mi WNW 9.2 mph - N/A   Overcast
12:55 AM 30.2 °F 23.4 °F 26.6 °F 86% 30.08 in 6.0 mi WNW 6.9 mph - N/A   Overcast
1:15 AM 30.2 °F 21.9 °F 26.6 °F 86% 30.08 in 7.0 mi WNW 9.2 mph - N/A   Overcast
1:35 AM 30.2 °F 23.4 °F 26.6 °F 86% 30.08 in 6.0 mi WNW 6.9 mph - N/A   Overcast
1:55 AM 30.2 °F 24.3 °F 26.6 °F 86% 30.08 in 5.0 mi NW 5.8 mph - N/A   Overcast
2:15 AM 30.2 °F 21.9 °F 26.6 °F 86% 30.08 in 6.0 mi WNW 9.2 mph - N/A   Overcast
2:35 AM 30.2 °F 23.4 °F 26.6 °F 86% 30.07 in 8.0 mi WNW 6.9 mph - N/A   Overcast
2:55 AM 30.2 °F 21.3 °F 26.6 °F 86% 30.07 in 8.0 mi WNW 10.4 mph 16.1 mph N/A   Overcast
3:55 AM 28.4 °F 19.7 °F 24.8 °F 86% 30.07 in 7.0 mi WNW 9.2 mph - N/A   Mostly Cloudy
4:15 AM 28.4 °F 21.2 °F 26.6 °F 93% 30.07 in 5.0 mi WNW 6.9 mph - N/A   Mostly Cloudy
4:35 AM 28.4 °F 20.4 °F 26.6 °F 93% 30.07 in 5.0 mi WNW 8.1 mph - N/A   Overcast
5:15 AM 28.4 °F 21.2 °F 24.8 °F 86% 30.08 in 7.0 mi NW 6.9 mph - N/A   Overcast
5:35 AM 28.4 °F 19.7 °F 24.8 °F 86% 30.08 in 8.0 mi WNW 9.2 mph - N/A   Overcast
6:15 AM 28.4 °F 20.4 °F 24.8 °F 86% 30.08 in 10.0 mi WNW 8.1 mph - N/A   Overcast
6:35 AM 28.4 °F 19.1 °F 24.8 °F 86% 30.08 in 9.0 mi WNW 10.4 mph - N/A   Overcast
6:55 AM 28.4 °F 19.1 °F 24.8 °F 86% 30.08 in 9.0 mi WNW 10.4 mph - N/A   Overcast
7:15 AM 28.4 °F 19.7 °F 24.8 °F 86% 30.09 in 7.0 mi WNW 9.2 mph - N/A   Overcast
7:35 AM 28.4 °F 20.4 °F 24.8 °F 86% 30.10 in 7.0 mi WNW 8.1 mph - N/A   Overcast
7:55 AM 28.4 °F 19.1 °F 24.8 °F 86% 30.11 in 6.0 mi NW 10.4 mph - N/A   Overcast
8:15 AM 28.4 °F 19.1 °F 24.8 °F 86% 30.11 in 3.0 mi NW 10.4 mph - N/A   Overcast
8:35 AM 28.4 °F 19.1 °F 24.8 °F 86% 30.11 in 3.0 mi WNW 10.4 mph - N/A   Overcast
8:55 AM 28.4 °F 20.4 °F 24.8 °F 86% 30.11 in 7.0 mi NW 8.1 mph - N/A   Overcast
9:15 AM 28.4 °F 18.5 °F 24.8 °F 86% 30.11 in 7.0 mi WNW 11.5 mph - N/A   Overcast
9:35 AM 30.2 °F 20.8 °F 24.8 °F 80% 30.11 in 9.0 mi NW 11.5 mph 17.3 mph N/A   Overcast
10:15 AM 30.2 °F 21.9 °F 24.8 °F 80% 30.12 in 5.0 mi WNW 9.2 mph - N/A   Overcast
10:35 AM 30.2 °F 21.9 °F 24.8 °F 80% 30.12 in 4.0 mi NW 9.2 mph - N/A   Overcast
10:55 AM 30.2 °F 20.8 °F 24.8 °F 80% 30.12 in 4.0 mi WNW 11.5 mph - N/A   Overcast
11:15 AM 30.2 °F 21.3 °F 26.6 °F 86% 30.11 in 6.0 mi WNW 10.4 mph 16.1 mph N/A   Overcast
11:35 AM 32.0 °F 23.0 °F 26.6 °F 80% 30.11 in 5.0 mi NNW 11.5 mph 16.1 mph N/A   Overcast
12:15 PM 32.0 °F 23.6 °F 24.8 °F 75% 30.11 in 10.0 mi WNW 10.4 mph - N/A   Overcast
12:35 PM 32.0 °F 24.8 °F 24.8 °F 75% 30.11 in 10.0 mi NW 8.1 mph - N/A   Overcast
1:15 PM 32.0 °F 24.8 °F 24.8 °F 75% 30.10 in 10.0 mi WNW 8.1 mph - N/A   Overcast
1:35 PM 33.8 °F 26.4 °F 24.8 °F 70% 30.10 in 10.0 mi WNW 9.2 mph - N/A   Overcast
1:55 PM 32.0 °F 24.2 °F 24.8 °F 75% 30.10 in 10.0 mi NNW 9.2 mph - N/A   Overcast
2:15 PM 33.8 °F 27.0 °F 24.8 °F 70% 30.10 in 5.0 mi WNW 8.1 mph - N/A   Overcast
2:35 PM 32.0 °F 24.8 °F 26.6 °F 80% 30.10 in 4.0 mi NNW 8.1 mph - N/A   Overcast
3:15 PM 32.0 °F 23.6 °F 26.6 °F 80% 30.10 in 7.0 mi NNW 10.4 mph - N/A   Overcast
3:35 PM 32.0 °F 23.6 °F 24.8 °F 75% 30.10 in 6.0 mi NW 10.4 mph - N/A   Overcast
3:55 PM 32.0 °F 23.6 °F 26.6 °F 80% 30.11 in 9.0 mi WNW 10.4 mph - N/A   Overcast
4:15 PM 32.0 °F 24.2 °F 26.6 °F 80% 30.11 in 7.0 mi WNW 9.2 mph - N/A   Overcast
4:35 PM 32.0 °F 24.2 °F 26.6 °F 80% 30.11 in 3.0 mi NW 9.2 mph - N/A   Overcast
4:55 PM 30.2 °F 22.6 °F 26.6 °F 86% 30.11 in 2.5 mi WNW 8.1 mph - N/A   Overcast
5:15 PM 30.2 °F 23.4 °F 26.6 °F 86% 30.12 in 4.0 mi NW 6.9 mph - N/A   Overcast
5:35 PM 30.2 °F 24.3 °F 26.6 °F 86% 30.13 in 10.0 mi WNW 5.8 mph - N/A   Overcast
5:55 PM 30.2 °F 22.6 °F 26.6 °F 86% 30.13 in 9.0 mi NW 8.1 mph - N/A   Overcast
6:15 PM 30.2 °F 22.6 °F 26.6 °F 86% 30.14 in 8.0 mi NW 8.1 mph - N/A   Mostly Cloudy
6:35 PM 30.2 °F 24.3 °F 26.6 °F 86% 30.14 in 8.0 mi NW 5.8 mph - N/A   Overcast
6:55 PM 30.2 °F 21.3 °F 26.6 °F 86% 30.15 in 6.0 mi WNW 10.4 mph - N/A   Overcast
7:15 PM 30.2 °F 21.9 °F 26.6 °F 86% 30.15 in 5.0 mi NW 9.2 mph - N/A   Overcast
7:35 PM 30.2 °F 21.9 °F 26.6 °F 86% 30.15 in 6.0 mi NNW 9.2 mph - N/A   Overcast
7:55 PM 28.4 °F 19.1 °F 24.8 °F 86% 30.15 in 10.0 mi North 10.4 mph - N/A   Mostly Cloudy
8:15 PM 28.4 °F 21.2 °F 24.8 °F 86% 30.15 in 10.0 mi North 6.9 mph - N/A   Partly Cloudy
8:35 PM 28.4 °F 20.4 °F 24.8 °F 86% 30.16 in 6.0 mi North 8.1 mph - N/A   Scattered Clouds
8:55 PM 28.4 °F 20.4 °F 24.8 °F 86% 30.16 in 9.0 mi North 8.1 mph - N/A   Mostly Cloudy
9:15 PM 28.4 °F 17.5 °F 24.8 °F 86% 30.17 in 10.0 mi NNW 13.8 mph 18.4 mph N/A   Mostly Cloudy
9:55 PM 28.4 °F 19.7 °F 23.0 °F 80% 30.17 in 10.0 mi NW 9.2 mph - N/A   Overcast
10:15 PM 28.4 °F 19.1 °F 24.8 °F 86% 30.17 in 10.0 mi NW 10.4 mph - N/A   Overcast
10:35 PM 28.4 °F 20.4 °F 24.8 °F 86% 30.17 in 10.0 mi NW 8.1 mph - N/A   Overcast
10:55 PM 28.4 °F 19.1 °F 24.8 °F 86% 30.17 in 10.0 mi WNW 10.4 mph - N/A   Overcast
11:15 PM 28.4 °F 20.4 °F 24.8 °F 86% 30.16 in 8.0 mi NW 8.1 mph - N/A   Overcast
11:35 PM 28.4 °F 18.5 °F 24.8 °F 86% 30.17 in 5.0 mi NW 11.5 mph - N/A   Overcast